| time (UTC) | temp F | wind direction | speed MPH | gust MPH | rain 1hr in | rain 24hr in | rain mn in | humidity % | barometer mb |
| 20260508171544 | 66 | 0 | 4.0 | 15.0 | 0.00 | 0.00 | 0.00 | 33 | 1012.7 |
| 20260508170057 | 65 | 15 | 8.0 | 18.0 | 0.00 | 0.00 | 0.00 | 32 | 1013.1 |
| 20260508164539 | 65 | 12 | 6.0 | 15.0 | 0.00 | 0.00 | 0.00 | 34 | 1013.3 |
| 20260508163058 | 64 | 16 | 10.0 | 20.0 | 0.00 | 0.00 | 0.00 | 34 | 1013.5 |
| 20260508161553 | 64 | 14 | 7.0 | 14.0 | 0.00 | 0.00 | 0.00 | 35 | 1013.5 |
| 20260508160051 | 62 | 24 | 6.0 | 17.0 | 0.00 | 0.00 | 0.00 | 36 | 1013.7 |
| 20260508154541 | 62 | 29 | 10.0 | 25.0 | 0.00 | 0.00 | 0.00 | 37 | 1013.9 |
| 20260508153102 | 61 | 27 | 8.0 | 21.0 | 0.00 | 0.00 | 0.00 | 37 | 1014.0 |
| 20260508151550 | 62 | 17 | 9.0 | 17.0 | 0.00 | 0.00 | 0.00 | 36 | 1014.0 |
| 20260508150049 | 61 | 17 | 6.0 | 16.0 | 0.00 | 0.00 | 0.00 | 38 | 1014.0 |
| 20260508144545 | 60 | 36 | 4.0 | 18.0 | 0.00 | 0.00 | 0.00 | 39 | 1014.1 |
| 20260508143103 | 59 | 26 | 8.0 | 24.0 | 0.00 | 0.00 | 0.00 | 38 | 1014.4 |
| 20260508141557 | 59 | 17 | 4.0 | 18.0 | 0.00 | 0.00 | 0.00 | 39 | 1014.5 |
| 20260508134547 | 58 | 19 | 4.0 | 13.0 | 0.00 | 0.00 | 0.00 | 41 | 1014.6 |
| 20260508133045 | 56 | 19 | 5.0 | 22.0 | 0.00 | 0.00 | 0.00 | 45 | 1014.8 |
| 20260508131545 | 54 | 13 | 2.0 | 7.0 | 0.00 | 0.00 | 0.00 | 54 | 1014.9 |
| 20260508130049 | 51 | 26 | 2.0 | 5.0 | 0.00 | 0.00 | 0.00 | 59 | 1015.1 |
| 20260508124550 | 49 | 17 | 2.0 | 7.0 | 0.00 | 0.00 | 0.00 | 59 | 1015.3 |
| 20260508123048 | 48 | 24 | 3.0 | 7.0 | 0.00 | 0.00 | 0.00 | 61 | 1015.4 |
| 20260508121549 | 47 | 15 | 2.0 | 7.0 | 0.00 | 0.00 | 0.00 | 65 | 1015.4 |
| 20260508120059 | 45 | 360 | 2.0 | 5.0 | 0.00 | 0.00 | 0.00 | 69 | 1015.2 |
| 20260508114602 | 43 | 360 | 0.0 | 3.0 | 0.00 | 0.00 | 0.00 | 74 | 1015.2 |
| 20260508113053 | 42 | 360 | 1.0 | 5.0 | 0.00 | 0.00 | 0.00 | 75 | 1015.0 |
| 20260508111549 | 42 | 360 | 2.0 | 5.0 | 0.00 | 0.00 | 0.00 | 76 | 1015.0 |
| 20260508110056 | 40 | 360 | 2.0 | 6.0 | 0.00 | 0.00 | 0.00 | 79 | 1014.8 |
| 20260508104541 | 39 | 360 | 0.0 | 4.0 | 0.00 | 0.00 | 0.00 | 81 | 1014.4 |
| 20260508103049 | 39 | 186 | 2.0 | 5.0 | 0.00 | 0.00 | 0.00 | 82 | 1014.3 |
| 20260508101546 | 39 | 170 | 2.0 | 5.0 | 0.00 | 0.00 | 0.00 | 81 | 1014.2 |
| 20260508094548 | 40 | 138 | 1.0 | 4.0 | 0.00 | 0.00 | 0.00 | 79 | 1014.0 |
| 20260508093046 | 40 | 182 | 1.0 | 5.0 | 0.00 | 0.00 | 0.00 | 79 | 1014.1 |
| 20260508091604 | 40 | 0 | 0.0 | 7.0 | 0.00 | 0.00 | 0.00 | 78 | 1014.1 |
| 20260508090043 | 41 | 176 | 0.0 | 4.0 | 0.00 | 0.00 | 0.00 | 78 | 1013.9 |
| 20260508084547 | 41 | 148 | 0.0 | 5.0 | 0.00 | 0.00 | 0.00 | 77 | 1014.0 |
| 20260508083047 | 42 | 146 | 0.0 | 3.0 | 0.00 | 0.00 | 0.00 | 75 | 1013.9 |
| 20260508081609 | 42 | 0 | 0.0 | 4.0 | 0.00 | 0.00 | 0.00 | 74 | 1013.7 |
| 20260508074544 | 43 | 0 | 0.0 | 3.0 | 0.00 | 0.00 | 0.00 | 71 | 1013.7 |
| 20260508073051 | 44 | 186 | 0.0 | 3.0 | 0.00 | 0.00 | 0.00 | 70 | 1013.7 |
| 20260508071548 | 44 | 0 | 2.0 | 5.0 | 0.00 | 0.00 | 0.00 | 68 | 1013.7 |
| 20260508070050 | 46 | 140 | 0.0 | 1.0 | 0.00 | 0.00 | 0.00 | 66 | 1013.7 |
| 20260508064548 | 46 | 0 | 0.0 | 2.0 | 0.00 | 0.00 | 0.00 | 64 | 1013.5 |
| 20260508063048 | 47 | 0 | 0.0 | 1.0 | 0.00 | 0.00 | 0.00 | 62 | 1013.7 |
| 20260508061541 | 48 | 0 | 0.0 | 1.0 | 0.00 | 0.00 | 0.00 | 60 | 1013.7 |
| 20260508060106 | 49 | 0 | 0.0 | 1.0 | 0.00 | 0.00 | 0.00 | 58 | 1013.6 |
| 20260508054633 | 49 | 360 | 0.0 | 2.0 | 0.00 | 0.00 | 0.00 | 55 | 1013.5 |
| 20260508053052 | 50 | 0 | 0.0 | 1.0 | 0.00 | 0.00 | 0.00 | 53 | 1013.5 |
| 20260508051549 | 51 | 0 | 0.0 | 2.0 | 0.00 | 0.00 | 0.00 | 53 | 1013.5 |
| 20260508050050 | 52 | 360 | 0.0 | 2.0 | 0.00 | 0.00 | 0.00 | 50 | 1013.2 |
| 20260508044547 | 53 | 0 | 0.0 | 2.0 | 0.00 | 0.00 | 0.00 | 47 | 1012.9 |
| 20260508043056 | 54 | 360 | 2.0 | 6.0 | 0.00 | 0.00 | 0.00 | 47 | 1012.7 |
| 20260508041545 | 54 | 360 | 1.0 | 8.0 | 0.00 | 0.00 | 0.00 | 44 | 1012.5 |
| 20260508040045 | 55 | 360 | 1.0 | 8.0 | 0.00 | 0.00 | 0.00 | 44 | 1012.2 |
| 20260508034547 | 54 | 360 | 1.0 | 5.0 | 0.00 | 0.00 | 0.00 | 44 | 1012.2 |
| 20260508033047 | 56 | 168 | 0.0 | 4.0 | 0.00 | 0.00 | 0.00 | 43 | 1011.9 |
| 20260508031556 | 57 | 0 | 2.0 | 11.0 | 0.00 | 0.00 | 0.00 | 39 | 1011.9 |
| 20260508030047 | 56 | 155 | 3.0 | 8.0 | 0.00 | 0.00 | 0.00 | 40 | 1011.8 |
| 20260508024601 | 57 | 305 | 1.0 | 9.0 | 0.00 | 0.00 | 0.00 | 39 | 1011.7 |
| 20260508023050 | 57 | 261 | 2.0 | 8.0 | 0.00 | 0.00 | 0.00 | 41 | 1011.6 |
| 20260508021547 | 58 | 148 | 4.0 | 10.0 | 0.00 | 0.00 | 0.00 | 37 | 1011.5 |
| 20260508020058 | 58 | 139 | 3.0 | 10.0 | 0.00 | 0.00 | 0.00 | 38 | 1011.3 |
| 20260508014549 | 58 | 190 | 1.0 | 8.0 | 0.00 | 0.00 | 0.00 | 38 | 1011.2 |
| 20260508013042 | 58 | 0 | 1.0 | 7.0 | 0.00 | 0.00 | 0.00 | 39 | 1011.1 |
| 20260508011551 | 58 | 0 | 1.0 | 8.0 | 0.00 | 0.00 | 0.00 | 43 | 1010.6 |
| 20260508010052 | 57 | 163 | 2.0 | 6.0 | 0.00 | 0.00 | 0.00 | 41 | 1010.4 |
| 20260508004550 | 58 | 0 | 0.0 | 4.0 | 0.00 | 0.00 | 0.00 | 43 | 1010.2 |
| 20260508003049 | 59 | 292 | 0.0 | 3.0 | 0.00 | 0.00 | 0.00 | 42 | 1010.1 |
| 20260508001547 | 60 | 0 | 1.0 | 4.0 | 0.00 | 0.00 | 0.00 | 37 | 1009.9 |
| 20260508000049 | 61 | 0 | 0.0 | 5.0 | 0.00 | 0.00 | 0.00 | 39 | 1009.5 |
| 20260507234546 | 62 | 155 | 1.0 | 11.0 | 0.00 | 0.00 | 0.00 | 34 | 1009.4 |
| 20260507233046 | 63 | 171 | 5.0 | 12.0 | 0.00 | 0.00 | 0.00 | 33 | 1009.2 |
| 20260507231548 | 63 | 165 | 4.0 | 11.0 | 0.00 | 0.00 | 0.00 | 33 | 1009.0 |
| 20260507230047 | 64 | 221 | 3.0 | 16.0 | 0.00 | 0.00 | 0.00 | 32 | 1009.0 |
| 20260507224549 | 64 | 24 | 9.0 | 15.0 | 0.00 | 0.00 | 0.00 | 33 | 1008.8 |
| 20260507223048 | 64 | 18 | 6.0 | 12.0 | 0.00 | 0.00 | 0.00 | 32 | 1008.7 |
| 20260507221544 | 66 | 13 | 8.0 | 15.0 | 0.00 | 0.00 | 0.00 | 31 | 1008.3 |
| 20260507220052 | 68 | 155 | 7.0 | 14.0 | 0.00 | 0.00 | 0.00 | 29 | 1008.2 |
| 20260507214549 | 68 | 71 | 3.0 | 8.0 | 0.00 | 0.00 | 0.00 | 30 | 1008.0 |
| 20260507213052 | 68 | 187 | 5.0 | 12.0 | 0.00 | 0.00 | 0.00 | 28 | 1007.8 |
| 20260507211554 | 69 | 134 | 3.0 | 9.0 | 0.00 | 0.00 | 0.00 | 27 | 1007.6 |
| 20260507210049 | 69 | 82 | 5.0 | 11.0 | 0.00 | 0.00 | 0.00 | 27 | 1007.8 |
| 20260507204551 | 67 | 11 | 4.0 | 15.0 | 0.00 | 0.01 | 0.00 | 27 | 1007.6 |
| 20260507203047 | 68 | 13 | 3.0 | 16.0 | 0.00 | 0.01 | 0.00 | 27 | 1007.8 |
| 20260507201550 | 70 | 159 | 5.0 | 13.0 | 0.00 | 0.01 | 0.00 | 25 | 1008.1 |
| 20260507200050 | 68 | 11 | 4.0 | 14.0 | 0.00 | 0.01 | 0.00 | 27 | 1008.0 |
| 20260507194548 | 67 | 11 | 4.0 | 18.0 | 0.00 | 0.01 | 0.00 | 27 | 1008.2 |
| 20260507193046 | 68 | 11 | 6.0 | 16.0 | 0.00 | 0.01 | 0.00 | 26 | 1008.3 |
| 20260507191545 | 68 | 162 | 3.0 | 11.0 | 0.00 | 0.01 | 0.00 | 26 | 1008.3 |
| 20260507190051 | 67 | 10 | 4.0 | 11.0 | 0.00 | 0.01 | 0.00 | 27 | 1008.7 |
| 20260507184547 | 69 | 157 | 3.0 | 9.0 | 0.00 | 0.01 | 0.00 | 27 | 1008.8 |
| 20260507183050 | 67 | 12 | 5.0 | 11.0 | 0.00 | 0.01 | 0.00 | 28 | 1008.8 |
| 20260507181551 | 68 | 261 | 4.0 | 9.0 | 0.00 | 0.01 | 0.00 | 26 | 1009.0 |
| 20260507180053 | 67 | 9 | 1.0 | 7.0 | 0.00 | 0.01 | 0.00 | 31 | 1009.4 |
| 20260507174602 | 67 | 19 | 1.0 | 8.0 | 0.00 | 0.01 | 0.00 | 32 | 1009.6 |
| 20260507173050 | 66 | 10 | 1.0 | 5.0 | 0.00 | 0.01 | 0.00 | 33 | 1010.0 |